Location: Eferding
(48.3167°N, 14.0167°E)
Time: 10:24:53
(UTC+00:00)

Cosmos 2344 - Pass Details

Date: 12 November 2019
Orbit: 1258 x 2984 km, 63.3° (Epoch: 12 December)

Event Time Altitude Azimuth Distance (km) Brightness Sun altitude
Rises 17:30:44 0° 243° (WSW) 4,218 7.5 -20.2°
Reaches altitude 10° 17:33:32 10° 248° (WSW) 3,237 6.8 -20.6°
Maximum altitude 17:40:50 52° 325° (NW) 1,606 4.2 -21.9°
Enters shadow 17:47:44 16° 38° (NE) 3,208 5.3 -23.0°
